SCP
1 1 1 0 0 0 0 0 1 1 1 1 1 1 1 1 1 1 1 1 1 1 1 0 0 0 0 1 1 1 1 1 1 1 1 1 0 0 0 0 0 0 0
1 1 1 0 0 0 0 0 0 1 1 1 1 1 1 1 1 1 1 1 1 1 1 0 0 0 1 1 1 1 0 0 1 1 1 0 0 0 0 0 0 0 0
1 1 1 1 0 0 0 0 0 0 0 0 0 0 0 0 0 1 1 1 1 1 0 0 0 0 0 0 1 0 0 0 0 0 0 0 0 0 0 0 1 1 0
1 1 1 1 0 0 0 0 0 0 0 0 0 0 0 0 0 0 0 0 0 0 0 0 0 0 0 0 0 0 0 0 0 0 0 0 0 0 0 0 0 0 0
1 1 1 1 0 0 0 0 0 0 0 0 0 0 0 0 0 0 0 0 0 0 0 0 0 0 0 0 0 0 0 0 0 0 0 0 0 0 0 0 0 0 0
1 1 1 1 0 0 0 0 0 0 0 0 0 0 0 0 0 0 0 0 0 0 0 0 0 0 0 0 0 0 0 0 0 0 0 0 0 0 0 0 0 0 0
1 1 1 1 0 0 0 0 0 0 0 0 0 0 0 0 0 0 0 0 0 0 0 0 0 0 0 0 0 0 0 0 0 0 0 0 0 0 0 0 0 0 0
1 1 1 1 0 0 0 0 0 0 0 0 0 0 0 0 0 0 0 0 0 0 0 0 0 0 0 0 0 0 0 0 0 0 0 0 0 0 0 0 0 0 0
1 1 1 1 0 0 0 0 0 0 0 0 0 0 0 0 0 0 0 0 0 0 0 0 0 0 0 0 0 0 0 0 0 0 0 0 0 0 0 0 0 0 0
1 1 1 1 0 0 0 0 0 0 0 0 0 0 0 0 0 0 0 0 0 0 0 0 0 0 0 0 0 0 0 0 0 0 0 0 0 0 0 0 0 0 0
1 1 1 1 0 0 0 0 0 0 0 0 0 0 0 0 0 0 0 0 0 0 0 0 0 0 0 0 0 0 0 0 0 0 0 0 0 0 0 0 0 0 0
1 1 1 1 0 0 0 1 0 0 0 0 0 0 0 0 0 0 0 0 0 0 0 0 0 0 0 0 0 0 0 0 0 0 0 0 0 0 0 0 0 0 0
1 1 1 1 1 0 0 0 0 0 0 0 0 0 0 0 0 0 0 0 0 0 0 0 0 0 0 0 0 0 0 0 0 0 0 0 0 0 0 0 0 0 0
1 1 1 1 1 1 0 0 0 0 0 0 0 0 0 0 0 0 0 0 0 0 0 0 0 0 0 0 0 0 0 0 0 0 0 0 0 0 0 0 0 0 0
1 1 1 1 1 1 0 0 0 0 0 0 0 0 0 0 0 0 0 0 0 0 0 0 0 0 0 0 0 0 0 0 0 0 0 0 0 0 0 0 0 0 0
1 1 1 1 1 1 0 0 0 0 0 0 0 0 0 0 0 0 0 0 0 0 0 0 0 0 0 0 0 0 0 0 0 0 0 0 0 0 0 0 0 0 0
1 1 1 1 1 0 0 0 0 0 0 0 0 0 0 0 0 0 0 0 0 0 0 0 0 0 0 0 0 0 0 0 0 0 0 0 0 0 0 0 0 0 0
1 1 1 1 1 0 0 0 0 0 0 0 0 0 0 0 0 0 0 0 0 0 0 0 0 0 0 0 0 0 0 0 0 0 0 0 0 0 0 0 0 0 0
1 0 1 1 1 0 0 0 0 0 0 0 0 0 0 0 0 0 0 0 0 0 0 0 0 0 0 0 0 0 0 0 0 0 0 0 0 0 0 0 0 0 0
0 0 0 0 0 0 0 0 0 0 0 0 0 0 0 0 0 0 0 0 0 0 0 0 0 0 0 0 0 0 0 0 0 0 0 0 0 0 0 0 0 0 0
0 0 0 0 0 0 0 0 0 0 0 0 0 0 0 0 0 0 0 0 0 0 0 0 0 0 0 0 0 0 0 0 0 0 0 0 0 0 0 0 0 0 0
0 0 0 0 0 0 0 0 0 0 0 0 0 0 0 0 0 0 0 0 0 0 0 0 0 0 0 0 0 0 0 0 0 0 0 0 0 0 0 0 0 0 0
0 0 0 0 0 0 0 0 0 0 0 0 0 0 0 0 0 0 0 0 0 0 0 0 0 0 0 0 0 0 0 0 0 0 0 0 0 0 0 0 0 0 0
0 0 0 0 0 0 0 0 0 0 0 0 0 0 0 0 0 0 0 0 0 0 0 0 0 0 0 0 0 0 0 0 0 0 0 0 0 0 0 0 0 0 0
0 0 0 0 0 0 0 0 0 0 0 0 0 0 0 0 0 0 0 0 0 0 0 0 0 0 0 0 0 0 0 0 0 0 0 0 0 0 0 0 0 0 0
0 0 0 0 0 0 0 0 0 0 0 0 0 0 0 0 0 0 0 0 0 0 0 0 0 0 0 0 0 0 0 0 0 0 0 0 0 0 0 0 0 0 0
Wind_Speed
3 3 4 4 5 6 6 7 7 7 8 7 5 2 2 3 4 4 5 5 6 5 4 5 4 4 3 3 2 2 2 2 2 2 2 3 3 4 4 4 3 3 3
1 2 2 3 4 5 6 7 7 7 7 7 6 4 1 1 2 3 5 5 6 6 6 6 5 5 5 4 3 4 3 3 2 2 2 2 3 3 4 4 4 4 2
4 3 2 1 2 4 4 5 5 6 6 6 6 5 3 4 4 5 6 7 8 8 7 7 7 7 6 4 5 5 4 3 2 2 2 2 3 4 4 4 5 5 5
5 4 3 1 1 2 3 3 3 3 3 4 4 4 4 5 5 7 8 9 9 9 9 9 8 6 5 5 6 6 5 4 4 3 4 5 5 7 5 5 4 4 5
5 5 4 3 2 1 2 1 1 1 1 1 3 4 4 6 6 6 7 9 8 8 8 7 7 8 9 7 6 6 7 7 6 5 6 5 5 6 6 5 4 3 2
5 5 5 5 4 2 2 2 2 1 1 2 3 4 6 7 11 12 8 7 7 7 6 6 8 8 6 6 8 9 8 7 6 5 5 5 5 5 5 6 4 4 3
5 5 6 7 5 4 3 3 3 2 2 3 6 7 7 8 13 12 10 7 8 8 8 8 8 10 9 6 1 3 5 8 8 5 5 4 4 5 6 7 5 3 2
5 6 7 8 7 5 3 3 3 3 3 4 6 7 6 7 11 12 9 7 6 6 7 8 8 8 10 10 7 8 6 5 5 4 2 3 3 4 5 6 5 2 1
6 6 8 9 8 7 5 4 3 4 4 4 6 6 6 4 8 11 10 3 5 8 9 9 8 7 12 13 8 7 7 6 3 4 4 6 6 6 5 5 7 6 4
6 7 9 10 10 9 6 5 4 5 4 4 5 6 5 4 5 8 9 2 3 6 7 8 10 8 9 10 6 6 6 6 8 8 4 2 3 5 7 5 5 6 5
6 7 9 10 10 9 7 5 5 5 4 4 6 5 5 5 5 7 8 4 2 2 6 6 4 6 7 8 6 4 5 6 6 4 3 4 5 5 5 4 3 3 3
6 7 9 10 11 11 9 7 6 6 6 5 5 5 4 4 4 6 7 8 6 6 6 6 4 4 5 6 5 8 11 9 5 5 5 5 4 4 4 5 5 4 1
6 7 8 10 9 8 11 10 8 6 6 6 6 6 5 5 5 6 6 9 11 7 5 6 5 3 2 3 3 6 7 6 5 5 5 5 4 4 4 5 6 6 4
7 7 8 8 8 8 9 9 9 9 7 6 7 6 6 6 5 4 4 4 6 5 5 4 3 2 2 4 4 2 1 3 4 4 5 5 5 4 4 4 5 5 5
8 8 9 9 9 9 9 7 8 7 7 8 7 6 7 6 5 6 4 3 2 2 3 3 3 3 3 3 2 2 4 4 4 4 4 5 5 5 4 4 4 5 5
9 9 9 8 8 8 8 7 6 3 7 11 9 8 7 10 14 13 12 10 8 5 1 3 5 5 4 2 2 4 5 4 3 3 4 4 4 4 4 4 4 5 5
10 9 9 9 10 10 10 10 8 6 7 7 13 15 14 17 15 13 11 8 6 4 1 4 4 2 2 2 3 4 5 4 2 3 4 4 4 4 4 4 4 4 5
13 12 10 9 9 10 10 10 10 10 8 6 6 14 18 17 15 13 10 6 3 2 4 6 2 3 3 3 4 4 4 4 3 3 3 3 4 3 3 4 3 3 4
14 11 10 9 9 9 9 10 10 11 11 11 9 6 9 12 11 9 7 4 5 6 7 6 3 4 4 4 4 3 3 4 3 1 2 2 3 3 3 4 4 5 4
12 14 12 9 9 9 9 9 9 9 9 10 12 11 10 9 7 7 6 6 6 6 6 4 4 4 4 4 4 3 2 3 4 1 3 3 3 3 4 5 4 4 4
11 12 12 10 9 9 9 9 8 9 10 10 11 13 16 12 10 10 9 8 8 8 5 4 5 4 4 3 3 4 4 2 2 3 3 3 3 2 3 3 4 4 4
10 10 10 10 7 8 8 8 9 10 11 12 10 13 18 12 10 10 10 9 10 7 4 4 5 5 5 5 4 3 3 3 2 3 3 2 2 1 2 3 3 4 3
9 10 10 10 8 9 10 9 9 10 11 12 11 12 13 11 11 10 11 10 8 6 5 5 4 4 5 5 4 3 2 2 3 4 3 2 1 1 1 2 3 4 4
9 9 10 11 10 10 11 10 9 10 11 11 11 12 14 12 10 10 10 9 8 7 6 6 6 6 6 5 4 4 4 4 4 4 5 3 1 1 1 2 2 3 4
8 8 8 11 11 11 11 11 10 10 11 11 11 11 13 13 11 9 6 7 8 7 8 7 6 7 8 9 7 5 7 8 7 5 6 4 3 2 0 2 2 3 3
8 7 6 9 10 10 10 11 10 10 10 10 11 11 12 13 12 10 7 5 6 6 6 6 8 9 9 8 9 10 12 12 11 8 4 4 4 4 3 1 3 3 3
Wind_Direction
333 351 3 11 17 18 19 15 15 18 18 23 20 47 119 155 170 175 175 164 155 153 147 124 102 66 40 25 2 24 43 47 24 32 41 29 26 355 338 325 301 243 222
258 307 345 2 13 19 22 18 15 16 14 12 9 352 312 140 145 130 123 119 113 103 93 88 84 73 58 34 7 26 35 50 50 50 31 25 27 356 349 340 343 341 316
221 241 269 327 22 29 28 25 16 9 5 359 350 344 20 63 76 82 82 84 83 82 80 74 65 55 40 16 33 30 27 24 36 76 74 43 30 6 3 359 14 4 351
219 227 232 239 58 67 59 44 18 354 348 347 352 16 47 62 69 76 77 76 76 72 68 65 62 56 37 19 46 28 20 15 29 46 53 43 24 4 7 356 14 17 15
229 227 215 196 186 152 124 130 140 308 355 25 59 55 56 54 57 73 90 90 86 88 87 83 75 71 61 53 60 41 35 34 29 35 43 39 20 6 2 346 358 354 42
233 227 201 189 189 173 164 162 151 159 155 137 109 81 70 62 47 53 77 83 84 83 88 101 92 60 56 71 79 66 57 52 33 33 38 29 20 3 347 340 343 351 5
230 218 192 187 187 185 190 157 148 149 132 103 92 87 80 56 49 47 60 80 74 67 58 52 60 43 27 7 72 124 78 64 57 59 41 14 12 355 345 341 350 11 8
223 208 191 184 182 184 179 153 159 131 106 98 99 98 93 67 48 40 40 87 85 78 70 71 66 42 21 6 27 33 36 39 33 45 29 350 358 341 338 338 350 22 37
223 201 188 184 181 180 179 168 152 129 128 123 116 112 102 79 51 40 25 78 91 79 67 59 67 51 22 19 28 24 17 7 348 299 283 297 314 329 343 358 3 10 6
215 193 183 182 181 182 181 175 159 144 156 145 131 129 128 114 67 48 25 356 117 116 107 85 67 61 38 26 22 21 12 344 331 326 321 327 19 48 46 40 17 6 4
205 185 179 182 184 183 179 178 166 164 164 155 143 141 141 128 99 59 39 21 344 145 131 108 83 62 46 22 15 24 348 315 300 315 17 36 36 34 25 21 19 18 16
201 185 178 179 190 187 180 181 178 172 159 152 150 148 134 128 104 89 67 47 29 61 81 100 107 75 41 11 8 1 356 355 356 13 26 24 24 22 358 354 354 348 351
204 185 177 183 197 180 178 182 179 176 175 172 172 170 158 136 112 110 93 71 70 82 92 110 122 107 9 314 323 349 7 18 7 11 17 13 4 360 354 2 357 347 353
206 182 175 180 184 178 180 184 185 184 184 185 185 179 159 147 153 159 151 124 113 125 131 128 149 184 273 297 295 302 79 48 12 12 13 2 353 359 11 18 4 347 356
203 184 178 179 176 175 181 183 190 188 188 188 190 174 161 164 157 160 169 150 140 105 143 162 201 213 224 234 204 107 75 51 25 20 21 8 358 3 12 16 10 358 355
202 188 185 180 175 173 168 147 60 109 165 183 170 155 148 141 136 122 113 107 97 94 131 229 227 217 195 164 104 106 97 71 24 21 31 15 360 1 9 6 26 6 350
203 190 188 182 176 176 171 165 149 94 75 120 143 140 139 145 145 139 131 119 99 91 211 253 244 150 116 116 98 86 94 96 44 39 48 20 357 1 12 5 42 11 347
206 196 190 184 177 178 173 171 168 162 154 129 116 134 142 148 148 144 137 134 158 195 234 248 201 127 113 88 85 78 87 89 53 30 64 28 359 359 15 359 23 24 338
209 200 193 185 178 178 175 174 174 173 172 160 141 132 141 140 135 139 150 188 208 203 219 229 172 149 145 130 119 116 112 110 108 323 79 50 14 3 13 357 360 3 346
212 202 188 186 181 176 177 181 176 174 173 166 163 161 158 163 166 172 195 212 231 232 219 188 150 142 134 133 136 150 167 152 156 166 88 62 35 18 2 357 3 358 360
216 200 190 191 185 179 180 184 179 175 173 170 170 167 171 180 185 186 193 205 221 237 212 162 146 146 149 158 173 182 183 173 152 133 105 82 56 21 349 353 4 4 1
217 198 189 192 186 180 177 181 180 176 176 174 171 163 171 187 193 191 195 203 215 222 185 161 168 170 177 182 184 182 184 185 170 144 129 115 92 33 6 359 5 350 346
218 201 182 188 191 181 180 184 182 178 177 176 173 165 177 198 201 196 194 201 206 203 179 167 184 188 182 177 171 174 193 181 152 135 130 125 103 52 2 359 350 337 2
216 205 188 186 193 190 188 188 184 180 180 180 180 174 180 198 213 207 195 193 191 189 183 180 189 203 195 171 170 182 183 162 146 138 138 128 106 34 2 343 336 346 357
216 205 194 187 193 192 186 188 190 185 183 185 187 183 180 190 208 217 200 185 184 184 187 187 187 198 201 194 190 169 139 139 138 137 140 155 169 160 204 308 310 317 324
213 204 202 196 195 190 184 187 190 187 186 189 190 187 181 185 196 207 204 196 194 191 191 192 195 199 199 202 199 163 153 151 148 146 158 172 176 176 181 233 289 299 309